Flag for Canada Weather past 2 weeks in Kuujjuaq, Quebec, Canada

Now
61 °F

Partly sunny.


Feels Like: 61 °F
Forecast: 46 / 59 °F
Wind: 9 mph from Northwest

Location: Kuujjuaq

Current Time: Aug 28, 2015 at 2:15:29 PM

Latest Report: Aug 28, 2015 at 1:00 PM


Visibility: 15 mi

Pressure: 29.69 "Hg

Humidity: 68%

Dew point: 50 °F

Location of KuujjuaqLocation

Historic Weather in Kuujjuaq — Graph

°F

Kuujjuaq temperature yesterday

Maximum temperature yesterday: 61 °F (at 12:00 AM)
Minimum temperature yesterday: 52 °F (at 11:00 PM)
Average temperature yesterday: 58 °F

Past Weeks' High & Low Weather Summary

 TemperatureHumidityPressure
High77 °F (Aug 26, 1:00 PM)100% (Aug 14, 8:53 PM)30.19 "Hg (Aug 14, 8:53 PM)
Low41 °F (Aug 20, 12:00 AM)43% (Aug 16, 3:00 PM)29.22 "Hg (Aug 17, 3:00 PM)
Average55 °F81%29.81 "Hg
* Reported Aug 13 1:00 PM — Aug 28 1:00 PM, Kuujjuaq, Weather by CustomWeather, © 2015

Note: Actual official high and low records may vary slightly from our data, if they occured in-between our weather recording intervals... More about our weather records

Advertising

Kuujjuaq weather history for previous 24 hours

 ConditionsComfort  
Time TempWeatherWind HumidityBarometerVisibility
1:00 PM
Fri, Aug 28
61 °FPartly sunny.9 mph68%29.69 "Hg15 mi
12:00 PM59 °FPartly sunny.7 mph68%29.68 "Hg15 mi
11:00 AM55 °FLight rain. Broken clouds.3 mph82%29.69 "Hg15 mi
10:00 AM57 °FCloudy.5 mph82%29.68 "Hg15 mi
9:00 AM55 °FLight rain. Partly sunny.8 mph88%29.68 "Hg15 mi
8:00 AM54 °FMostly cloudy.6 mph94%29.68 "Hg15 mi
7:00 AM54 °FMore clouds than sun.5 mph88%29.68 "Hg15 mi
6:00 AM52 °FPassing clouds.7 mph94%29.68 "Hg15 mi
5:00 AM52 °FPassing clouds.6 mph94%29.68 "Hg15 mi
4:00 AM52 °FPartly cloudy.6 mph94%29.68 "Hg15 mi
3:00 AM52 °FPassing clouds.6 mph94%29.69 "Hg15 mi
2:00 AM52 °FLight rain. Partly cloudy.7 mph94%29.69 "Hg15 mi
1:00 AM52 °FLight rain. Overcast.6 mph94%29.70 "Hg15 mi
12:04 AM54 °FLight rain. Overcast.3 mph77%29.70 "Hg15 mi
11:00 PM
Thu, Aug 27
52 °FOvercast.6 mph82%29.71 "Hg15 mi
10:00 PM54 °FPassing clouds.3 mph82%29.71 "Hg15 mi
9:00 PM54 °FPassing clouds.3 mph82%29.72 "Hg15 mi
8:00 PM55 °FPartly sunny.6 mph77%29.71 "Hg15 mi
7:00 PM59 °FPartly sunny.3 mph63%29.70 "Hg15 mi
6:00 PM59 °FPartly sunny.2 mph63%29.69 "Hg15 mi
5:00 PM61 °FBroken clouds.3 mph59%29.69 "Hg15 mi
4:00 PM59 °FBroken clouds.3 mph68%29.69 "Hg15 mi
3:00 PM57 °FPartly sunny.8 mph67%29.69 "Hg15 mi
2:00 PM55 °FMostly cloudy.8 mph77%29.69 "Hg15 mi
Weather by CustomWeather, © 2015

See weather overviewHow to use our weather pages